• In Deutschland
  • Länderverzeichnis
  • Für 7 Tage
  • Wassertemperatur
  • Satellitenkarten
  • Wetterkarte
  • Widgets
  • user-avatar
    Anmelden

    Stündliche Wetter Kerkira

    Heute, 24 Oktober, Mittwoch

    Zeit Temperatur Niederschläge Wind Luftdruck Luftfeuchtigkeit
    00:00 +17°C° 0 mm 3 m/S 759 mmHg 70%
    01:00 +16°C° 0 mm 3 m/S 758 mmHg 71%
    02:00 +16°C° 0 mm 3 m/S 758 mmHg 71%
    03:00 +16°C° 0 mm 3 m/S 758 mmHg 71%
    04:00 +16°C° 0 mm 3 m/S 758 mmHg 71%
    05:00 +15°C° 0 mm 4 m/S 758 mmHg 70%
    06:00 +15°C° 0 mm 4 m/S 758 mmHg 69%
    07:00 +17°C° 0 mm 4 m/S 758 mmHg 69%
    08:00 +19°C° 0 mm 5 m/S 758 mmHg 61%
    09:00 +21°C° 0 mm 5 m/S 757 mmHg 52%
    10:00 +23°C° 0 mm 5 m/S 757 mmHg 44%
    11:00 +23°C° 0 mm 6 m/S 757 mmHg 42%
    12:00 +24°C° 0 mm 7 m/S 756 mmHg 40%
    13:00 +24°C° 0 mm 7 m/S 756 mmHg 38%
    14:00 +24°C° 0 mm 8 m/S 756 mmHg 41%
    15:00 +23°C° 0 mm 8 m/S 755 mmHg 45%
    16:00 +22°C° 0 mm 8 m/S 755 mmHg 48%
    17:00 +21°C° 0 mm 8 m/S 755 mmHg 51%
    18:00 +18°C° 0 mm 8 m/S 756 mmHg 54%
    19:00 +17°C° 0 mm 8 m/S 756 mmHg 57%
    20:00 +17°C° 0 mm 7 m/S 756 mmHg 58%
    21:00 +16°C° 0 mm 7 m/S 757 mmHg 59%
    22:00 +16°C° 0 mm 7 m/S 757 mmHg 60%
    23:00 +16°C° 0 mm 7 m/S 757 mmHg 63%

    Morgen, 25 Oktober, Donnerstag

    Zeit Temperatur Niederschläge Wind Luftdruck Luftfeuchtigkeit
    00:00 +16°C° 0 mm 7 m/S 758 mmHg 66%
    01:00 +15°C° 0 mm 7 m/S 758 mmHg 70%
    02:00 +15°C° 0 mm 7 m/S 758 mmHg 73%
    03:00 +15°C° 0 mm 8 m/S 758 mmHg 76%
    04:00 +15°C° 0 mm 8 m/S 759 mmHg 79%
    05:00 +15°C° 0 mm 8 m/S 759 mmHg 78%
    06:00 +15°C° 0 mm 8 m/S 760 mmHg 77%
    07:00 +15°C° 0 mm 8 m/S 760 mmHg 76%
    08:00 +16°C° 0 mm 7 m/S 761 mmHg 65%
    09:00 +18°C° 0 mm 7 m/S 761 mmHg 54%
    10:00 +21°C° 0 mm 6 m/S 762 mmHg 43%
    11:00 +22°C° 0 mm 6 m/S 762 mmHg 38%
    12:00 +23°C° 0 mm 6 m/S 762 mmHg 33%
    13:00 +23°C° 0 mm 6 m/S 761 mmHg 29%
    14:00 +23°C° 0 mm 6 m/S 761 mmHg 32%
    15:00 +22°C° 0 mm 7 m/S 761 mmHg 35%
    16:00 +21°C° 0 mm 7 m/S 761 mmHg 38%
    17:00 +20°C° 0 mm 6 m/S 762 mmHg 38%
    18:00 +19°C° 0 mm 6 m/S 762 mmHg 39%
    19:00 +16°C° 0 mm 5 m/S 763 mmHg 40%
    20:00 +16°C° 0 mm 5 m/S 763 mmHg 39%
    21:00 +17°C° 0 mm 4 m/S 763 mmHg 39%
    22:00 +16°C° 0 mm 3 m/S 763 mmHg 38%
    23:00 +16°C° 0 mm 3 m/S 763 mmHg 38%

    übermorgen, 26 Oktober, Freitag

    Zeit Temperatur Niederschläge Wind Luftdruck Luftfeuchtigkeit
    00:00 +16°C° 0 mm 2 m/S 763 mmHg 38%
    01:00 +16°C° 0 mm 2 m/S 763 mmHg 37%
    02:00 +16°C° 0 mm 2 m/S 763 mmHg 37%
    03:00 +16°C° 0 mm 2 m/S 763 mmHg 37%
    04:00 +15°C° 0 mm 2 m/S 763 mmHg 37%
    05:00 +16°C° 0 mm 2 m/S 763 mmHg 38%
    06:00 +16°C° 0 mm 3 m/S 763 mmHg 39%
    07:00 +16°C° 0 mm 3 m/S 763 mmHg 40%
    08:00 +18°C° 0 mm 3 m/S 764 mmHg 40%
    09:00 +20°C° 0 mm 4 m/S 764 mmHg 41%
    10:00 +22°C° 0 mm 4 m/S 764 mmHg 42%
    11:00 +22°C° 0 mm 4 m/S 763 mmHg 43%
    12:00 +23°C° 0 mm 5 m/S 763 mmHg 45%
    13:00 +23°C° 0 mm 5 m/S 763 mmHg 47%
    14:00 +23°C° 0 mm 5 m/S 763 mmHg 52%
    15:00 +22°C° 0 mm 5 m/S 763 mmHg 57%
    16:00 +21°C° 0 mm 5 m/S 762 mmHg 62%
    17:00 +20°C° 0 mm 5 m/S 763 mmHg 67%
    18:00 +19°C° 0 mm 5 m/S 763 mmHg 73%
    19:00 +17°C° 0 mm 5 m/S 763 mmHg 78%
    20:00 +17°C° 0 mm 5 m/S 763 mmHg 78%
    21:00 +17°C° 0 mm 5 m/S 763 mmHg 77%
    22:00 +17°C° 0 mm 5 m/S 764 mmHg 77%
    23:00 +17°C° 0.1 mm 5 m/S 763 mmHg 77%

    27 Oktober, Samstag

    Zeit Temperatur Niederschläge Wind Luftdruck Luftfeuchtigkeit
    00:00 +17°C° 0.1 mm 5 m/S 763 mmHg 77%
    01:00 +17°C° 0.1 mm 5 m/S 763 mmHg 77%
    02:00 +17°C° 0.1 mm 5 m/S 763 mmHg 78%
    03:00 +17°C° 0.1 mm 5 m/S 763 mmHg 79%
    04:00 +17°C° 0.1 mm 5 m/S 763 mmHg 80%
    05:00 +17°C° 0 mm 5 m/S 763 mmHg 81%
    06:00 +17°C° 0 mm 6 m/S 763 mmHg 81%
    07:00 +19°C° 0 mm 6 m/S 763 mmHg 81%
    08:00 +20°C° 0.1 mm 6 m/S 763 mmHg 78%
    09:00 +21°C° 0.1 mm 6 m/S 763 mmHg 76%
    10:00 +22°C° 0.1 mm 6 m/S 763 mmHg 73%
    11:00 +22°C° 0.1 mm 6 m/S 762 mmHg 73%
    12:00 +22°C° 0.1 mm 6 m/S 762 mmHg 73%
    13:00 +23°C° 0.1 mm 6 m/S 762 mmHg 73%
    14:00 +22°C° 0.2 mm 6 m/S 762 mmHg 76%
    15:00 +22°C° 0.2 mm 5 m/S 761 mmHg 79%
    16:00 +22°C° 0.2 mm 5 m/S 761 mmHg 81%
    17:00 +21°C° 0.1 mm 5 m/S 762 mmHg 85%
    18:00 +20°C° 0.1 mm 5 m/S 762 mmHg 88%
    19:00 +20°C° 0.1 mm 5 m/S 762 mmHg 92%
    20:00 +19°C° 0.1 mm 5 m/S 762 mmHg 92%
    21:00 +19°C° 0.1 mm 5 m/S 762 mmHg 92%
    22:00 +19°C° 0.1 mm 5 m/S 762 mmHg 92%
    23:00 +19°C° 0.1 mm 5 m/S 762 mmHg 92%

    28 Oktober, Sonntag

    Zeit Temperatur Niederschläge Wind Luftdruck Luftfeuchtigkeit
    00:00 +19°C° 0.1 mm 5 m/S 762 mmHg 92%
    01:00 +19°C° 0.1 mm 5 m/S 762 mmHg 92%
    02:00 +17°C° 0.1 mm 5 m/S 762 mmHg 92%
    03:00 +17°C° 0.1 mm 5 m/S 762 mmHg 92%
    04:00 +17°C° 0.1 mm 6 m/S 762 mmHg 92%
    05:00 +17°C° 0 mm 6 m/S 761 mmHg 90%
    06:00 +17°C° 0 mm 6 m/S 761 mmHg 88%
    07:00 +17°C° 0 mm 7 m/S 761 mmHg 86%
    08:00 +20°C° 0 mm 7 m/S 761 mmHg 80%
    09:00 +22°C° 0 mm 7 m/S 761 mmHg 74%
    10:00 +23°C° 0 mm 8 m/S 761 mmHg 68%
    11:00 +23°C° 0.1 mm 8 m/S 761 mmHg 67%
    12:00 +23°C° 0.1 mm 8 m/S 760 mmHg 66%
    13:00 +24°C° 0.1 mm 9 m/S 760 mmHg 65%
    14:00 +23°C° 0 mm 9 m/S 760 mmHg 65%
    15:00 +22°C° 0 mm 9 m/S 760 mmHg 65%
    16:00 +22°C° 0 mm 9 m/S 759 mmHg 66%
    17:00 +21°C° 0 mm 9 m/S 760 mmHg 66%
    18:00 +19°C° 0 mm 9 m/S 760 mmHg 67%
    19:00 +18°C° 0 mm 9 m/S 760 mmHg 68%
    20:00 +18°C° 0.1 mm 9 m/S 760 mmHg 66%
    21:00 +18°C° 0.1 mm 9 m/S 760 mmHg 63%
    22:00 +18°C° 0.1 mm 9 m/S 760 mmHg 61%
    23:00 +17°C° 0 mm 9 m/S 759 mmHg 63%

    29 Oktober, Montag

    Zeit Temperatur Niederschläge Wind Luftdruck Luftfeuchtigkeit
    00:00 +17°C° 0 mm 10 m/S 758 mmHg 65%
    01:00 +17°C° 0 mm 10 m/S 758 mmHg 67%
    02:00 +17°C° 0 mm 10 m/S 758 mmHg 67%
    03:00 +17°C° 0 mm 11 m/S 757 mmHg 67%
    04:00 +17°C° 0 mm 11 m/S 757 mmHg 66%
    05:00 +17°C° 1.8 mm 11 m/S 757 mmHg 68%
    06:00 +17°C° 1.8 mm 11 m/S 757 mmHg 71%
    07:00 +17°C° 1.8 mm 11 m/S 758 mmHg 73%
    08:00 +17°C° 2.1 mm 11 m/S 758 mmHg 76%
    09:00 +17°C° 2.1 mm 11 m/S 758 mmHg 78%
    10:00 +17°C° 2.1 mm 11 m/S 758 mmHg 81%
    11:00 +18°C° 1.4 mm 11 m/S 757 mmHg 80%
    12:00 +19°C° 1.4 mm 11 m/S 757 mmHg 79%
    13:00 +21°C° 1.4 mm 11 m/S 757 mmHg 78%
    14:00 +21°C° 0.8 mm 11 m/S 757 mmHg 81%
    15:00 +21°C° 0.8 mm 11 m/S 757 mmHg 84%
    16:00 +19°C° 0.8 mm 10 m/S 757 mmHg 87%
    17:00 +19°C° 0.8 mm 10 m/S 757 mmHg 88%
    18:00 +19°C° 0.8 mm 10 m/S 757 mmHg 90%
    19:00 +19°C° 0.8 mm 10 m/S 757 mmHg 92%
    20:00 +19°C° 1.2 mm 9 m/S 757 mmHg 92%
    21:00 +19°C° 1.2 mm 9 m/S 757 mmHg 92%
    22:00 +19°C° 1.2 mm 9 m/S 758 mmHg 93%
    23:00 +19°C° 3.1 mm 10 m/S 757 mmHg 93%

    30 Oktober, Dienstag

    Zeit Temperatur Niederschläge Wind Luftdruck Luftfeuchtigkeit
    00:00 +19°C° 3.1 mm 11 m/S 757 mmHg 93%
    01:00 +19°C° 3.1 mm 12 m/S 756 mmHg 92%
    02:00 +19°C° 3.6 mm 11 m/S 756 mmHg 93%
    03:00 +19°C° 3.6 mm 11 m/S 755 mmHg 94%
    04:00 +19°C° 3.6 mm 11 m/S 755 mmHg 94%
    05:00 +19°C° 2.1 mm 12 m/S 754 mmHg 93%
    06:00 +19°C° 2.1 mm 12 m/S 754 mmHg 92%
    07:00 +19°C° 2.1 mm 12 m/S 754 mmHg 91%
    08:00 +19°C° 4.6 mm 12 m/S 753 mmHg 88%
    09:00 +19°C° 4.6 mm 12 m/S 753 mmHg 85%
    10:00 +21°C° 4.6 mm 12 m/S 753 mmHg 82%
    11:00 +19°C° 9.7 mm 12 m/S 753 mmHg 87%
    12:00 +19°C° 9.7 mm 11 m/S 753 mmHg 92%
    13:00 +18°C° 9.7 mm 10 m/S 753 mmHg 97%
    14:00 +17°C° 4.7 mm 9 m/S 754 mmHg 95%
    15:00 +16°C° 4.7 mm 8 m/S 755 mmHg 93%
    16:00 +14°C° 4.7 mm 7 m/S 756 mmHg 91%
    17:00 +14°C° 1.6 mm 6 m/S 757 mmHg 91%
    18:00 +14°C° 1.6 mm 5 m/S 758 mmHg 91%
    19:00 +14°C° 1.6 mm 4 m/S 759 mmHg 91%
    20:00 +14°C° 0 mm 4 m/S 760 mmHg 90%
    21:00 +14°C° 0 mm 4 m/S 760 mmHg 89%
    22:00 +14°C° 0 mm 3 m/S 761 mmHg 88%
    23:00 +14°C° 0 mm 3 m/S 762 mmHg 87%
    Mehr zeigen